Regional Weather Roundup
Issued by NWS Grand Forks, ND

Home | Current Version | Previous Version | Text Only | Print | Product List | Glossary Off
Versions: 1 2 3 4 5 6 7 8 9 10 11 12 13 14 15 16 17 18 19 20 21 22 23 24 25 26 27 28 29 30 31 32 33 34 35 36 37 38 39 40 41 42 43 44 45 46 47 48 49 50

000
ASUS43 KFGF 250210
RWRFGF
PRAIRIE TO PINES  WEATHER ROUNDUP
NATIONAL WEATHER SERVICE EASTERN NORTH DAKOTA/GRAND FORKS ND
800 PM CST FRI FEB 24 2017

 **SATELLITE DATA USED TO AUGMENT SKY COVER AT AUTOMATED STATIONS**
 *****  WEATHER ACROSS EASTERN NORTH DAKOTA  *****

CITY           SKY/WX    TMP DP  RH WIND       PRES   REMARKS
GRAND FORKS    FAIR      17   9  70 N9        30.12S WCI   6
GRAND FRKS AFB FAIR      14  10  83 N7        30.12F WCI   4
DEVILS LAKE    FAIR      18  14  84 NW3       30.09F
FARGO          FAIR      19  11  70 N20       30.10R WCI   3
WAHPETON ARPT    N/A     21  12  68 N16       30.08S WCI   7
$$

 ***** WEATHER ACROSS CENTRAL AND WESTERN NORTH DAKOTA  *****

CITY           SKY/WX    TMP DP  RH WIND       PRES   REMARKS
BISMARCK       CLOUDY    26  17  68 W3        30.12S
MINOT          MOCLDY    26  16  65 W6        30.07F WCI  19
JAMESTOWN      FAIR      20  14  77 NW8       30.09S WCI  10
MINOT AFB      NOT AVBL
GARRISON         N/A     20  14  77 W5        30.08F WCI  13
WILLISTON      MOCLDY    21  16  81 CALM      30.08F
DICKINSON      CLOUDY    20  16  84 S6        30.03F WCI  12
HETTINGER      CLOUDY    24  16  71 E6        30.07S WCI  17
$$

 *****  OTHER AIRPORT OBSERVATIONS IN OUR AREA  *****

CITY           SKY/WX    TMP DP  RH WIND       PRES   REMARKS
WALHALLA       NOT AVBL
GRAFTON AIRPOR FAIR      14  12  92 N5        30.14F WCI   6
VALLEY CITY AR FAIR      18  16  93 N14       30.11S WCI   4
CANDO          NOT AVBL
CAVALIER APRT    N/A     12  10  92 CALM      30.12F
GWINNER        MOCLDY    23  18  80 NW10      30.10S WCI  12
SHEYENNE NWR     N/A     20  12  72 N7        29.95S WCI  11
ROLLA          MOCLDY    12  10  92 SW3       30.06F
 ***** THE ABOVE OBSERVATIONS ARE NON NWS ARE NOT QUALITY
       CONTROLLED AND MAY MIS-REPORT RAIN FOR SNOW...
$$

  *****  WEATHER ACROSS NORTHERN MINNESOTA  *****

CITY           SKY/WX    TMP DP  RH WIND       PRES   REMARKS
FLAG ISLAND    FAIR      12   3  67 NW16      30.02F WCI  -4
WARROAD        FAIR      12   3  67 NW13      30.05S WCI  -3
ROSEAU         FAIR      10   5  79 NW9       30.06S WCI  -2
HALLOCK        FAIR      12   9  85 N5        30.11F WCI   4
THF RVR FALLS  FAIR      13   9  84 NW14      30.08S WCI  -2
BAUDETTE       FAIR      12   2  64 NW10      29.99F WCI  -1
WASKISH        FAIR      14   5  67 NW6       29.99F WCI   5
CROOKSTON      FAIR      16  10  79 N14       30.11F WCI   1
GREENBUSH NDAW   N/A      7   3  85 W5          N/A  WCI  -2
$$
  *****  WEATHER ACROSS CENTRAL AND WEST MINNESOTA  *****

CITY           SKY/WX    TMP DP  RH WIND       PRES   REMARKS
FOSSTON        FAIR      12   9  85 NW15      30.04S WCI  -4
BEMIDJI        FAIR      14   6  70 NW16      29.97S WCI  -2
PARK RAPIDS    FAIR      17   5  59 NW16      29.95S WCI   2
ELBOW LAKE     FAIR      18  12  79 NW17G25   30.02S WCI   3
WADENA         FAIR      18   9  68 NW16G24   29.97R WCI   3
DETROIT LAKES  FAIR      18  12  79 N20       30.02S WCI   1
MOORHEAD       FAIR      19  10  68 N18       30.09S WCI   4
FERGUS FALLS   FAIR      18  12  79 N14G26    30.09S WCI   4
MORRIS MN      FAIR      19  12  73 N21G32    30.01S WCI   3
STAPLES        FAIR      18   9  68 NW15G24   29.95S WCI   3
$$
  *****  WEATHER ELSEWHERE ACROSS MINNESOTA  *****

CITY           SKY/WX    TMP DP  RH WIND       PRES   REMARKS
DULUTH         FAIR      17   7  64 N10       29.83F WCI   5
INTRNTL FALLS  FAIR      13   2  61 N15       29.96S WCI  -3
ELY            FAIR      14   1  57 NW8       29.86S WCI   3
CLOQUET        FAIR      18   7  62 NW15G24   29.86S WCI   3
WHEATON        CLOUDY    21  12  68 NW18G26   30.08S WCI   6
BRAINERD       FAIR      19   7  59 N20       29.93S WCI   3
HIBBING        FAIR      14   3  61 N12       29.88F WCI   0
ALEXANDRIA     MOCLDY    20  13  74 NW17G28   29.97R WCI   5
SAINT CLOUD    FAIR      21   9  59 N12       29.91S WCI   9
MINNEAPOLIS    MOCLDY    23   9  55 N21G26    29.88R WCI   8
$$

  *****  WEATHER ACROSS SOUTH DAKOTA  *****

CITY           SKY/WX    TMP DP  RH WIND       PRES   REMARKS
SIOUX FALLS    MOCLDY    23  15  71 N21       30.01R WCI   8
BROOKINGS      FLURRIES  21  14  74 N21G28    30.00R WCI   5
WATERTOWN      FAIR      19  13  77 N16       30.02R WCI   4
HURON          FAIR      23  16  74 N16       30.10R WCI  10
SISSETON         N/A     20  16  84 N15       30.06S WCI   6
ABERDEEN       FAIR      21  14  74 NW12      30.12R WCI   9
MITCHELL       FAIR      26  17  68 N13       30.09R WCI  15
PIERRE         FAIR      20  12  71 W7        30.12R WCI  11
MOBRIDGE       CLOUDY    25  14  63 NE8       30.08F WCI  16
RAPID CITY     FAIR      19  14  81 S6        30.05F WCI  11
$$

  *****  SOME WEATHER IN NEARBY STATES *****

CITY           SKY/WX    TMP DP  RH WIND       PRES   REMARKS
GLASGOW MT     LGT SNOW  29  26  89 SW6       30.03F FOG     WCI  23
GREAT FALLS MT CLOUDY    25  14  63 N5        30.03R WCI  19
CHEYENNE WY    FAIR      12   8  84 SW8       29.96R WCI   0
SCOTTSBLUFF NE FAIR      16  12  84 CALM      30.05S
OMAHA NE       MOCLDY    25  15  66 NW17      29.99R WCI  12
DES MOINES IA  LGT SNOW  24  21  88 N16G23    29.86R VSB 1   WCI  11
DAVENPORT IA   LGT SNOW  31  29  92 N13       29.66R FOG     WCI  21
CHICAGO IL     DRIZZLE   38  35  89 W12       29.55R
EAU CLAIRE WI  LGT SNOW  19  15  84 N13       29.80R VSB 3/4 WCI   6
LA CROSSE WI   CLOUDY    24  20  84 N20       29.74S FOG     WCI  10
$$

  *****  SOME NATIONAL WEATHER *****

CITY           SKY/WX    TMP DP  RH WIND       PRES   REMARKS
LA GUARDIA NY  FAIR      59  55  87 S14       29.86R
RALEIGH NC     FAIR      65  53  65 SE6       29.83S
ATLANTA GA     MOCLDY    68  53  58 S6        29.80S
NEW ORLEANS LA FAIR      69  63  81 S8        29.80R
OKLAHOMA CITY  FAIR      40  21  46 N16G25    30.07R
ALBUQUERQUE NM FAIR      41  -1  17 W12       29.99R
SALT LAKE CITY FAIR      30  15  53 SE6       30.13R WCI  24
LOS ANGELES CA FAIR      54  39  57 W12       30.15R
BOISE ID       FAIR      35  15  44 NW3       30.14S
SEATTLE WA     FAIR      42  29  59 W5        30.17R
$$

*** WEATHER ACROSS MANITOBA...SASKATCHEWAN AND ONTARIO ***
                ***ONTARIO***

CITY           SKY/WX    TMP DP  RH WIND       PRES   REMARKS
GERALDTON      CLOUDY     7   1  78 NE9       29.88F WCI  -7
THUNDER BAY    CLOUDY    14   5  67 N12G21    29.87F WCI   0
SIOUX LOOKOUT  MOCLDY    10   3  72 N3        29.95F
TORONTO        CLOUDY    39  37  93 SE7       29.59F FOG
BIG TROUT LK   PTCLDY     0  -8  71 NE5       30.07F WCI -10
PICKLE LAKE    PTCLDY     7   0  72 N5        29.95F WCI  -2
DRYDEN         CLEAR      7   1  78 NW8       29.95F WCI  -6
KENORA         PTCLDY     7   1  78 N2        29.99F
$$
                *** MANITOBA***

CITY           SKY/WX    TMP DP  RH WIND       PRES   REMARKS
BRANDON        FLURRIES  19  12  73 SW9       30.06F WCI   9
DAUPHIN        CLEAR     19  14  79 VRB2      30.05F
ISLAND LAKE    LGT SNOW   3   0  85 NW2       30.08F
PILOT MOUND      N/A     14   9  79 W6          N/A  WCI   5
THE PAS        CLOUDY    10   1  67 E3        30.07F
THOMPSON       PTCLDY    -6 -11  77 NE2       30.09F
WINNIPEG       CLEAR     10   7  85 W8        30.10F WCI  -1
LYNN LAKE      FLURRIES  -2  -6  84 W6        30.05F WCI -14
CHURCHILL      MOCLDY    -4  -9  77 S6        30.18F WCI -16
GILLAM         CLEAR     -6 -11  77 E5        30.13F WCI -17
$$
                ***SASKATCHEWAN***

CITY           SKY/WX    TMP DP  RH WIND       PRES   REMARKS
ESTEVAN        MOCLDY    21  16  79 S6        30.03F WCI  14
KINDERSLEY     PTCLDY    18  14  86 N14       30.09S WCI   4
LLOYDMINSTER   PTCLDY     5   0  78 NW8       30.14S WCI  -8
PRINCE ALBERT  MOCLDY    12   1  62 N14       30.11R WCI  -3
REGINA         LGT SNOW  23  23 100 W10       30.02S FOG     WCI  12
YORKTON        FLURRIES  21  19  93 NW3       30.01F
N. BATTLEFORD  CLEAR     12   5  73 NW12      30.15S WCI  -2
LA RONGE       FLURRIES   7  -2  66 W12G18    30.13S WCI  -9
SASKATOON      MOCLDY    18  14  86 N10       30.10R WCI   6
SWIFT CURRENT  PTCLDY    19  18  93 NW8       30.03R WCI   9
$$
NOTE: THESE ARE AUTOMATED STATIONS WITH LIMITED QUALITY CONTROL
      "FAIR" INDICATES FEW OR NO CLOUDS BELOW 12,000 FEET WITH NO
      SIGNIFICANT WEATHER AND/OR OBSTRUCTIONS TO VISIBILITY.
      SKY/WX - SKY CONDITION AND SIGNIFICANT WEATHER.
      TMP - AIR TEMPERATURE.    DP   - DEWPOINT TEMPERATURE.
      RH  - RELATIVE HUMIDITY.  PRES - PRESSURE.
      HX  - HEAT INDEX.         WCI  - WIND CHILL INDEX.
$



USA.gov is the U.S. government's official web portal to all federal, state and local government web resources and services.